GW1468 Weather Reports


time (UTC)temp
C
wind
direction
speed
KPH
gust
KPH
rain 1hr
cm
rain 24hr
cm
rain mn
cm
humidity
%
barometer
mb
20260508162723 17 214 4.8 6.4 0.00 0.00 0.00 41
20260508162130 17 237 3.2 3.2 0.00 0.00 0.00 44
20260508161515 17 221 3.2 4.8 0.00 0.00 0.00 44
20260508160931 17 199 3.2 12.9 0.00 0.00 0.00 43
20260508160338 16 249 0.0 3.2 0.00 0.00 0.00 45
20260508155110 16 175 4.8 9.7 0.00 0.00 0.00 43
20260508154521 16 270 0.0 4.8 0.00 0.00 0.00 45
20260508153937 16 218 3.2 4.8 0.00 0.00 0.00 47
20260508153342 16 170 3.2 9.7 0.00 0.00 0.00 47
20260508152746 15 170 3.2 6.4 0.00 0.00 0.00 46
20260508151536 15 244 4.8 9.7 0.00 0.00 0.00 45
20260508150945 15 168 8.0 9.7 0.00 0.00 0.00 44
20260508145746 15 164 4.8 4.8 0.00 0.00 0.00 41
20260508145148 14 167 3.2 4.8 0.00 0.00 0.00 47
20260508143942 14 243 1.6 4.8 0.00 0.00 0.00 51
20260508142727 13 253 0.0 1.6 0.00 0.00 0.00 71
20260508142148 12 253 1.6 1.6 0.00 0.00 0.00 72
20260508141518 12 254 0.0 1.6 0.00 0.00 0.00 76
20260508140935 11 253 0.0 0.0 0.00 0.00 0.00 81
20260508135748 10 253 0.0 1.6 0.00 0.00 0.00 85
20260508135145 10 202 0.0 1.6 0.00 0.00 0.00 84
20260508134522 9 177 0.0 3.2 0.00 0.00 0.00 84
20260508133915 8 181 0.0 1.6 0.00 0.00 0.00 86
20260508133312 8 210 1.6 3.2 0.00 0.00 0.00 88
20260508132726 7 246 0.0 0.0 0.00 0.00 0.00 91
20260508132122 7 229 0.0 3.2 0.00 0.00 0.00 92
20260508130308 6 198 3.2 3.2 0.00 0.00 0.00 97
20260508125126 5 212 1.6 3.2 0.00 0.00 0.00 98
20260508123936 5 273 0.0 1.6 0.00 0.00 0.00 98
20260508123350 5 275 0.0 1.6 0.00 0.00 0.00 99
20260508122731 4 274 0.0 1.6 0.00 0.00 0.00 99
20260508122120 4 313 0.0 1.6 0.00 0.00 0.00 99
20260508121537 4 331 0.0 0.0 0.00 0.00 0.00 99
20260508120920 4 329 0.0 1.6 0.00 0.00 0.00 99
20260508115710 3 307 0.0 1.6 0.00 0.00 0.00 99
20260508115148 3 329 0.0 1.6 0.00 0.00 0.00 99
20260508114519 3 315 0.0 0.0 0.00 0.00 0.00 99
20260508113930 3 315 1.6 1.6 0.00 0.00 0.00 99
20260508113316 3 297 0.0 0.0 0.00 0.00 0.00 99
20260508112719 3 322 0.0 1.6 0.00 0.00 0.00 99
20260508112143 3 335 0.0 1.6 0.00 0.00 0.00 99
20260508111542 3 325 0.0 1.6 0.00 0.00 0.00 99
20260508110922 3 327 0.0 1.6 0.00 0.00 0.00 99
20260508110326 3 325 0.0 1.6 0.00 0.00 0.00 99
20260508105142 3 313 0.0 1.6 0.00 0.00 0.00 99
20260508103936 3 294 1.6 3.2 0.00 0.00 0.00 99
20260508103338 3 313 0.0 1.6 0.00 0.00 0.00 99
20260508102715 3 331 0.0 0.0 0.00 0.00 0.00 99
20260508102115 3 330 0.0 1.6 0.00 0.00 0.00 99
20260508101512 3 331 0.0 0.0 0.00 0.00 0.00 99
20260508100938 3 331 0.0 1.6 0.00 0.00 0.00 99
20260508100331 3 335 0.0 1.6 0.00 0.00 0.00 99
20260508095748 3 329 0.0 0.0 0.00 0.00 0.00 99
20260508095130 3 334 0.0 0.0 0.00 0.00 0.00 99
20260508094522 3 330 0.0 0.0 0.00 0.00 0.00 99
20260508093943 3 335 0.0 0.0 0.00 0.00 0.00 99
20260508092722 3 316 1.6 3.2 0.00 0.00 0.00 99
20260508092142 3 310 1.6 1.6 0.00 0.00 0.00 99
20260508091528 3 310 1.6 1.6 0.00 0.00 0.00 99
20260508090932 3 310 0.0 0.0 0.00 0.00 0.00 99
20260508085139 3 322 0.0 1.6 0.00 0.00 0.00 99
20260508084547 3 331 0.0 1.6 0.00 0.00 0.00 99
20260508083912 3 316 0.0 1.6 0.00 0.00 0.00 99
20260508083313 3 325 0.0 1.6 0.00 0.00 0.00 99
20260508082735 3 322 0.0 0.0 0.00 0.00 0.00 99
20260508082150 3 322 0.0 0.0 0.00 0.00 0.00 99
20260508081537 3 313 0.0 3.2 0.00 0.00 0.00 99
20260508080328 4 331 0.0 1.6 0.00 0.00 0.00 99
20260508075731 4 326 0.0 0.0 0.00 0.00 0.00 99
20260508075120 4 310 1.6 3.2 0.00 0.00 0.00 99
20260508074529 4 303 1.6 1.6 0.00 0.00 0.00 99
20260508073327 4 324 1.6 1.6 0.00 0.00 0.00 99
20260508072733 4 325 0.0 0.0 0.00 0.00 0.00 99
20260508072115 4 325 0.0 1.6 0.00 0.00 0.00 99
20260508071537 4 318 1.6 1.6 0.00 0.00 0.00 99
20260508070950 4 324 1.6 3.2 0.00 0.00 0.00 99
20260508070338 5 329 0.0 0.0 0.00 0.00 0.00 99
20260508065738 5 318 0.0 0.0 0.00 0.00 0.00 99
20260508065133 5 318 0.0 4.8 0.00 0.00 0.00 99
20260508064520 5 319 0.0 1.6 0.00 0.00 0.00 99
20260508063925 5 310 0.0 3.2 0.00 0.00 0.00 99
20260508063318 5 304 1.6 3.2 0.00 0.00 0.00 99
20260508062742 5 317 0.0 3.2 0.00 0.00 0.00 99
20260508062146 5 315 0.0 3.2 0.00 0.00 0.00 99
20260508061530 5 304 3.2 3.2 0.00 0.00 0.00 99
20260508060909 5 328 0.0 1.6 0.00 0.00 0.00 99
20260508060341 5 328 0.0 1.6 0.00 0.00 0.00 99
20260508055751 5 327 0.0 1.6 0.00 0.00 0.00 99
20260508055141 5 320 0.0 1.6 0.00 0.00 0.00 99
20260508054544 5 330 0.0 0.0 0.00 0.00 0.00 99
20260508052737 5 329 0.0 1.6 0.00 0.00 0.00 99
20260508052132 5 328 0.0 0.0 0.00 0.00 0.00 99
20260508051526 5 328 0.0 0.0 0.00 0.00 0.00 99
20260508050945 5 331 0.0 0.0 0.00 0.00 0.00 99
20260508050309 5 335 0.0 0.0 0.00 0.00 0.00 99
20260508045724 5 348 0.0 0.0 0.00 0.00 0.00 99
20260508045128 5 348 0.0 0.0 0.00 0.00 0.00 99
20260508044542 5 348 0.0 0.0 0.00 0.00 0.00 99
20260508043936 5 348 0.0 0.0 0.00 0.00 0.00 99
20260508043347 5 348 0.0 0.0 0.00 0.00 0.00 99
20260508042723 5 348 0.0 0.0 0.00 0.00 0.00 99
20260508042141 5 348 0.0 0.0 0.00 0.00 0.00 99
20260508041532 5 348 0.0 0.0 0.00 0.00 0.00 99
20260508040318 5 348 0.0 0.0 0.00 0.00 0.00 99
20260508035120 5 348 0.0 0.0 0.00 0.00 0.03 99
20260508034526 5 348 0.0 0.0 0.00 0.00 0.03 99
20260508033916 5 348 0.0 0.0 0.00 0.00 0.03 99
20260508033321 5 348 0.0 0.0 0.00 0.00 0.03 99
20260508032734 5 348 0.0 0.0 0.00 0.00 0.03 99
20260508032146 5 348 0.0 0.0 0.00 0.00 0.03 99
20260508031526 6 348 0.0 0.0 0.00 0.00 0.03 99
20260508030931 6 348 0.0 0.0 0.00 0.00 0.03 99
20260508030311 6 348 0.0 1.6 0.00 0.00 0.03 99
20260508025719 6 348 0.0 0.0 0.00 0.00 0.03 99
20260508025114 6 348 0.0 1.6 0.00 0.00 0.03 99
20260508024525 6 348 0.0 0.0 0.00 0.00 0.03 99
20260508023946 6 348 0.0 0.0 0.00 0.00 0.03 99
20260508023341 6 348 0.0 0.0 0.00 0.00 0.03 99
20260508022723 6 348 0.0 0.0 0.00 0.00 0.03 99
20260508021515 7 348 0.0 1.6 0.00 0.00 0.03 99
20260508020945 7 348 0.0 0.0 0.00 0.00 0.03 99
20260508020349 7 348 0.0 0.0 0.00 0.00 0.03 99
20260508015738 7 348 0.0 0.0 0.00 0.00 0.03 99
20260508015145 7 348 0.0 0.0 0.00 0.00 0.03 99
20260508014517 7 348 0.0 0.0 0.00 0.00 0.03 99
20260508012725 8 348 0.0 0.0 0.00 0.00 0.03 99
20260508011528 8 348 0.0 0.0 0.00 0.00 0.03 99
20260508010935 8 348 0.0 0.0 0.00 0.00 0.03 98
20260508010349 8 348 0.0 0.0 0.00 0.00 0.03 98
20260508005736 8 348 0.0 0.0 0.00 0.00 0.03 98
20260508003908 9 347 0.0 0.0 0.00 0.00 0.03 96
20260508003340 9 347 0.0 0.0 0.00 0.00 0.03 96
20260508002734 9 348 0.0 0.0 0.00 0.00 0.03 95
20260508002110 10 348 0.0 0.0 0.00 0.00 0.03 95
20260508001532 10 348 0.0 0.0 0.00 0.00 0.03 94
20260508000949 10 347 1.6 1.6 0.00 0.00 0.03 93
20260508000335 10 286 0.0 0.0 0.00 0.00 0.03 92
20260507235747 11 286 0.0 0.0 0.00 0.00 0.03 91
20260507235119 11 286 0.0 1.6 0.00 0.00 0.03 90
20260507234551 11 286 0.0 0.0 0.00 0.00 0.03 90
20260507233938 11 284 1.6 1.6 0.00 0.00 0.03 88
20260507233347 11 284 0.0 0.0 0.00 0.00 0.03 87
20260507231535 13 287 0.0 1.6 0.00 0.00 0.03 78
20260507225744 13 277 0.0 0.0 0.00 0.00 0.03 82
20260507225120 13 276 0.0 1.6 0.00 0.00 0.03 80
20260507224527 14 272 0.0 1.6 0.00 0.00 0.03 76
20260507223918 15 273 1.6 1.6 0.00 0.00 0.03 75
20260507223338 16 284 1.6 3.2 0.00 0.00 0.03 71
20260507222719 16 156 1.6 4.8 0.00 0.00 0.03 61
20260507221516 14 159 3.2 3.2 0.00 0.00 0.03 68
20260507220312 14 109 1.6 3.2 0.00 0.00 0.03 70
20260507215738 15 154 0.0 1.6 0.00 0.00 0.03 71
20260507215144 14 155 0.0 1.6 0.00 0.00 0.03 73
20260507213944 15 176 1.6 4.8 0.00 0.00 0.03 64
20260507212737 15 35 0.0 1.6 0.00 0.00 0.03 68
20260507211532 15 34 0.0 0.0 0.00 0.00 0.03 67
20260507210928 16 33 0.0 1.6 0.00 0.00 0.03 69
20260507210344 15 31 0.0 1.6 0.00 0.00 0.03 66
20260507204547 15 26 0.0 1.6 0.00 0.00 0.03 69
20260507202737 14 34 0.0 1.6 0.00 0.00 0.03 73
20260507202152 14 36 1.6 3.2 0.00 0.00 0.03 66
20260507201538 14 96 1.6 3.2 0.00 0.00 0.03 70
20260507200938 13 339 0.0 1.6 0.00 0.00 0.03 68
20260507195752 13 43 1.6 3.2 0.00 0.00 0.03 66
20260507195151 13 261 1.6 3.2 0.00 0.00 0.03 67
20260507194514 14 142 3.2 3.2 0.00 0.00 0.03 66
20260507193951 14 167 1.6 4.8 0.00 0.00 0.03 70
20260507192732 15 197 3.2 4.8 0.00 0.00 0.03 66
20260507192146 15 152 1.6 3.2 0.00 0.00 0.03 64
20260507191535 13 169 1.6 4.8 0.00 0.00 0.03 67
20260507190936 13 103 1.6 3.2 0.00 0.00 0.03 69
20260507185724 13 161 3.2 6.4 0.00 0.00 0.03 72
20260507185150 13 192 0.0 3.2 0.00 0.00 0.03 68
20260507184549 13 177 1.6 6.4 0.00 0.00 0.03 68
20260507183952 13 161 4.8 6.4 0.00 0.00 0.03 67
20260507183308 13 148 3.2 9.7 0.00 0.00 0.03 68
20260507182714 12 213 0.0 3.2 0.00 0.00 0.03 71
20260507182150 12 149 0.0 3.2 0.00 0.00 0.03 75
20260507181510 12 137 0.0 1.6 0.00 0.00 0.03 73
20260507180928 12 150 4.8 9.7 0.00 0.00 0.03 73
20260507180324 13 177 0.0 0.0 0.00 0.00 0.03 70
20260507174520 13 167 3.2 9.7 0.00 0.00 0.03 71
20260507173945 13 32 1.6 3.2 0.00 0.00 0.03 70
20260507172732 13 170 3.2 4.8 0.00 0.00 0.03 70
20260507172129 13 141 0.0 1.6 0.00 0.00 0.03 71
20260507170911 13 172 1.6 3.2 0.00 0.00 0.03 71
20260507170321 13 164 3.2 9.7 0.00 0.00 0.03 69
20260507165750 13 150 0.0 3.2 0.00 0.00 0.03 71
20260507165135 12 194 0.0 1.6 0.00 0.00 0.03 71
20260507163923 12 38 3.2 6.4 0.00 0.00 0.03 70